This demonstration page uses our WeatherBlox Daily Observations layout. Learn more.

Left ArrowRight Arrow

Hourly Observations for July 17, 2022

Temp ( °F °C ) Dew Point ( °F °C ) Humidity (%) Winds ( mph kmh ) Pressure ( in mb ) Visibility ( mi km ) Precip ( " mm )
12:53 am 00:53 Mostly Clear 90 32.2 67 19.4 47 47 SSE 8 13 29.88 1012 10 16 0.00 0.00
1:53 am 01:53 Mostly Clear 89 31.7 66 18.9 47 47 S 8 13 29.88 1012 10 16 0.00 0.00
2:53 am 02:53 Mostly Clear 88 31.1 66 18.9 48 48 S 6 9 29.88 1012 10 16 0.00 0.00
3:53 am 03:53 Mostly Clear 87 30.6 67 19.4 51 51 S 8 13 29.88 1012 10 16 0.00 0.00
4:53 am 04:53 Mostly Clear 86 30 68 20 55 55 SSW 9 15 29.88 1012 10 16 0.00 0.00
5:53 am 05:53 Mostly Clear 85 29.4 69 20.6 59 59 SSW 8 13 29.90 1012 10 16 0.00 0.00
6:53 am 06:53 Partly Cloudy 85 29.4 68 20 57 57 SSW 9 15 29.91 1013 7 11 0.00 0.00
7:53 am 07:53 Mostly Cloudy 85 29.4 68 20 57 57 VRB 6 9 29.91 1013 10 16 0.00 0.00
8:53 am 08:53 Mostly Cloudy 86 30 67 19.4 53 53 SSW 10 17 29.92 1013 10 16 0.00 0.00
9:53 am 09:53 Mostly Cloudy 87 30.6 68 20 53 53 SW 8 13 29.92 1013 9 14 0.00 0.00
10:53 am 10:53 Mostly Cloudy 90 32.2 68 20 48 48 SW 9 15 29.91 1013 8 13 0.00 0.00
11:53 am 11:53 Mostly Cloudy 94 34.4 68 20 43 43 VRB 7 11 29.91 1013 8 13 0.00 0.00
12:53 pm 12:53 Sunny 97 36.1 67 19.4 37 37 VRB 6 9 29.89 1012 10 16 0.00 0.00
1:53 pm 13:53 Mostly Cloudy 100 37.8 64 17.8 31 31 VRB 5 7 29.87 1011 8 13 0.00 0.00
2:53 pm 14:53 Mostly Cloudy 102 38.9 64 17.8 29 29 WSW 9 15 29.84 1011 10 16 0.00 0.00
3:53 pm 15:53 Mostly Cloudy 102 38.9 64 17.8 29 29 undefined N/A 29.82 1010 10 16 0.00 0.00
4:53 pm 16:53 Mostly Cloudy 104 40 63 17.2 26 26 S 9 15 29.81 1010 10 16 0.00 0.00
5:53 pm 17:53 Mostly Cloudy 103 39.4 62 16.7 26 26 S 13 20 29.80 1009 10 16 0.00 0.00
6:53 pm 18:53 Mostly Cloudy 101 38.3 61 16.1 27 27 S 12 19 29.79 1009 10 16 0.00 0.00
7:53 pm 19:53 Partly Cloudy 100 37.8 61 16.1 28 28 S 12 19 29.79 1009 10 16 0.00 0.00
8:53 pm 20:53 Partly Cloudy 98 36.7 60 15.6 28 28 SSE 12 19 29.80 1009 10 16 0.00 0.00
9:53 pm 21:53 Partly Cloudy 97 36.1 59 15 28 28 SSE 9 15 29.81 1010 10 16 0.00 0.00
10:53 pm 22:53 Mostly Clear 95 35 59 15 30 30 S 8 13 29.83 1010 10 16 0.00 0.00
11:53 pm 23:53 Mostly Clear 94 34.4 59 15 31 31 S 10 17 29.83 1010 10 16 0.00 0.00

Powered by AerisWeather